Change the Weather History Date:

Thursday, March 27, 2014

  Actual Average Record
Temperature  
Mean Temperature 30 °F -  
Max Temperature 37 °F 49 °F 64 °F (2007)
Min Temperature 23 °F 31 °F 12 °F (1960)
Degree Days  
Heating Degree Days 36    
Moisture  
Dew Point 11 °F    
Average Humidity 46    
Maximum Humidity 70    
Minimum Humidity 32    
Precipitation  
Precipitation 0.00 in - - ()
Sea Level Pressure  
Sea Level Pressure 30.27 in    
Wind  
Wind Speed 18 mph (West)    
Max Wind Speed 26 mph    
Max Gust Speed 39 mph    
Visibility 10 miles    
Events      
Averages and records for this station are not official NWS values.
T = Trace of Precipitation, MM = Missing Value Source: NWS Daily Summary

Daily Weather History Graph

Daily Weather History Graph

Search for Another Location

Airport or City:

Trip Planner

Search our weather history database for the weather conditions in past years. The results will help you decide how hot, cold, wet, or windy it might be!

Date:

Astronomy

Mar. 27, 2014 Rise Set
Actual Time 6:34 AM EDT 7:02 PM EDT
Civil Twilight 6:06 AM EDT 7:30 PM EDT
Nautical Twilight 5:33 AM EDT 8:02 PM EDT
Astronomical Twilight 5:00 AM EDT 8:36 PM EDT
Moon 4:25 AM EDT (3/27) 3:44 PM EDT (3/27)
Length of Visible Light 13h 23m
Length of Day
12h 28m
Waning Crescent, 13% of the Moon is Illuminated
Mar 27
Waning Crescent
Mar 30
New
Apr 7
First Quarter
Apr 15
Full
Apr 22
Last Quarter

Hourly Weather History & Observations

Time (EDT) Temp. Windchill Dew Point Humidity Pressure Visibility Wind Dir Wind Speed Gust Speed Precip Events Conditions
12:53 AM 26.1 °F 14.0 °F 1.0 °F 34% 30.02 in 10.0 mi NW 15.0 mph 33.4 mph N/A   Clear
1:53 AM 25.0 °F 9.9 °F 1.0 °F 36% 30.06 in 10.0 mi NW 23.0 mph 33.4 mph N/A   Clear
2:53 AM 24.1 °F 7.7 °F -0.0 °F 35% 30.09 in 10.0 mi NW 26.5 mph 39.1 mph N/A   Clear
3:53 AM 23.0 °F 8.7 °F -0.9 °F 35% 30.14 in 10.0 mi NW 18.4 mph 27.6 mph N/A   Clear
4:53 AM 24.1 °F 8.7 °F -0.9 °F 34% 30.18 in 10.0 mi NW 23.0 mph 33.4 mph N/A   Clear
5:53 AM 23.0 °F 6.6 °F -0.0 °F 37% 30.22 in 10.0 mi NW 25.3 mph 31.1 mph N/A   Clear
6:53 AM 24.1 °F 8.7 °F -0.0 °F 35% 30.26 in 10.0 mi NNW 23.0 mph 33.4 mph N/A   Clear
7:53 AM 24.1 °F 11.0 °F 1.0 °F 37% 30.31 in 10.0 mi NW 16.1 mph 31.1 mph N/A   Clear
8:53 AM 26.1 °F 13.1 °F 1.0 °F 34% 30.32 in 10.0 mi NW 17.3 mph 26.5 mph N/A   Clear
9:53 AM 28.0 °F 16.1 °F 3.0 °F 34% 30.33 in 10.0 mi NNW 16.1 mph - N/A   Clear
10:53 AM 30.0 °F 20.5 °F 3.9 °F 33% 30.34 in 10.0 mi WNW 11.5 mph 19.6 mph N/A   Clear
11:53 AM 30.9 °F 22.8 °F 3.9 °F 32% 30.34 in 10.0 mi WSW 9.2 mph - N/A   Clear
12:53 PM 33.1 °F 26.9 °F 8.1 °F 35% 30.35 in 10.0 mi Variable 6.9 mph - N/A   Clear
1:53 PM 34.0 °F 23.8 °F 14.0 °F 44% 30.33 in 10.0 mi SW 16.1 mph 25.3 mph N/A   Clear
2:53 PM 35.1 °F 24.1 °F 16.0 °F 46% 30.33 in 10.0 mi SSW 19.6 mph 24.2 mph N/A   Clear
3:53 PM 36.0 °F 26.7 °F 17.1 °F 46% 30.32 in 10.0 mi SW 15.0 mph 23.0 mph N/A   Clear
4:53 PM 36.0 °F 25.6 °F 18.0 °F 48% 30.32 in 10.0 mi SW 18.4 mph 23.0 mph N/A   Clear
5:53 PM 34.0 °F 24.6 °F 21.0 °F 59% 30.33 in 10.0 mi SW 13.8 mph 23.0 mph N/A   Clear
6:53 PM 34.0 °F 23.4 °F 23.0 °F 64% 30.34 in 10.0 mi SW 17.3 mph 24.2 mph N/A   Clear
7:53 PM 35.1 °F 25.9 °F 25.0 °F 67% 30.34 in 10.0 mi WSW 13.8 mph 21.9 mph N/A   Partly Cloudy
8:53 PM 35.1 °F 25.9 °F 25.0 °F 67% 30.34 in 10.0 mi SW 13.8 mph - N/A   Clear
9:53 PM 36.0 °F 26.7 °F 26.1 °F 67% 30.33 in 10.0 mi SW 15.0 mph - N/A   Clear
10:53 PM 36.0 °F 27.1 °F 27.0 °F 70% 30.33 in 10.0 mi SW 13.8 mph 20.7 mph N/A   Clear
11:53 PM 37.0 °F 28.9 °F 28.0 °F 70% 30.30 in 10.0 mi SW 12.7 mph - N/A   Clear